Satellite-Ground Cal/Val Site Overpasses Predictions

Prediction of Satellite NPP Overpassing Cal/Val Site: Antarctic Dome C

Ground Cal/Val Site Location: Latitude: -75.10, Longitude: 123.35; Satellite-Ground Site NADIR distance within 100 km.

Table of predicted overpasses for the next 14.0 days since TLE Epoch: 8/13/2022
Interval Starting Time Ending Time Minimum Distance Time Minimum Distance (km)
1 08/13/2022 14:43:06 08/13/2022 14:43:31 08/13/2022 14:43:18 48.68
2 08/14/2022 07:44:48 08/14/2022 07:45:08 08/14/2022 07:44:58 72.24
3 08/15/2022 07:25:55 08/15/2022 07:26:23 08/15/2022 07:26:09 35.48
4 08/17/2022 15:08:25 08/17/2022 15:08:29 08/17/2022 15:08:27 98.65
5 08/18/2022 14:49:24 08/18/2022 14:49:53 08/18/2022 14:49:38 13.00
6 08/20/2022 07:32:14 08/20/2022 07:32:44 08/20/2022 07:32:29 1.45
7 08/23/2022 14:55:43 08/23/2022 14:56:12 08/23/2022 14:55:57 24.18
8 08/24/2022 14:37:01 08/24/2022 14:37:17 08/24/2022 14:37:09 83.02
9 08/25/2022 07:38:35 08/25/2022 07:39:02 08/25/2022 07:38:49 37.64
